Tracking 25995 objects as of 20-Aug-2022
HD Live streaming from Space Station
objects crossing your sky now

HISPASAT 1A

Track HISPASAT 1A now!
HISPASAT 1A is classified as:


NORAD ID: 22116
Int'l Code: 1992-060A
Perigee: 36,056.3 km
Apogee: 36,070.9 km
Inclination: 13.2 °
Period: 1,449.9 minutes
Semi major axis: 42434 km
RCS: 7.143 m2 (large)
Launch date: September 10, 1992
Source: Spain (SPN)
Launch site: FRENCH GUIANA (FRGUI)
aabbcc
Your satellite tracking list
Your tracking list is empty




NASA's NSSDC Master Catalog

Two Line Element Set (TLE):
1 22116U 92060A   22231.52804560 -.00000280  00000-0  00000-0 0  9990
2 22116  13.2338  20.1222 0001712  84.8209 173.0851  0.99316860105615
Source of the keplerian elements: AFSPC